FW1153 Weather Reports


time (UTC)temp
F
wind
direction
speed
knots
gust
knots
rain 1hr
in
rain 24hr
in
rain mn
in
humidity
%
barometer
mb
20260504081545 44 72 1.7 3.5 0.00 0.00 0.00 78 1005.0
20260504050015 52 66 2.6 4.3 0.00 0.00 0.00 61 1005.1
20260504044514 53 63 0.0 2.6 0.00 0.00 0.00 64 1005.2
20260504043013 52 63 1.7 2.6 0.00 0.00 0.00 66 1005.3
20260504041509 52 63 2.6 4.3 0.00 0.00 0.00 66 1005.3
20260504040010 53 63 3.5 4.3 0.00 0.00 0.00 67 1005.3
20260504034508 55 63 1.7 3.5 0.00 0.00 0.00 61 1005.2
20260504033007 58 63 2.6 3.5 0.00 0.00 0.00 56 1005.1
20260504031507 60 63 1.7 3.5 0.00 0.00 0.00 51 1005.0
20260504030014 61 63 0.0 0.9 0.00 0.00 0.00 47 1005.0
20260504024508 63 63 1.7 2.6 0.00 0.00 0.00 40 1004.9
20260504023006 63 63 1.7 2.6 0.00 0.00 0.00 40 1004.8
20260504021505 64 63 1.7 3.5 0.00 0.00 0.00 49 1004.8
20260504020005 68 63 1.7 2.6 0.00 0.00 0.00 37 1004.6
20260504014503 70 63 1.7 3.5 0.00 0.00 0.00 35 1004.7
20260504013009 71 63 1.7 4.3 0.00 0.00 0.00 32 1004.9
20260504011601 72 63 5.2 7.0 0.00 0.00 0.00 29 1005.1
20260504010100 72 49 3.5 9.6 0.00 0.00 0.00 31 1005.2
20260504004640 73 32 1.7 5.2 0.00 0.00 0.00 28 1005.4
20260504003101 73 32 7.0 12.2 0.00 0.00 0.00 29 1005.5
20260504001622 73 5 3.5 8.7 0.00 0.00 0.00 27 1005.6
20260504000104 73 11 2.6 4.3 0.00 0.00 0.00 26 1005.8
20260503234600 74 15 7.0 11.3 0.00 0.00 0.00 29 1006.1
20260503233057 74 285 1.7 4.3 0.00 0.00 0.00 25 1006.0
20260503231548 74 313 2.6 7.8 0.00 0.00 0.00 27 1006.3
20260503230108 72 339 1.7 9.6 0.00 0.00 0.00 27 1006.6
20260503224545 73 316 4.3 8.7 0.00 0.00 0.00 29 1006.8
20260503223044 72 13 2.6 12.2 0.00 0.00 0.00 27 1006.9
20260503221541 72 31 7.8 12.2 0.00 0.00 0.00 30 1007.2
20260503220045 73 311 4.3 13.0 0.00 0.00 0.00 27 1007.3
20260503214537 73 224 2.6 4.3 0.00 0.00 0.00 32 1007.5
20260503213036 73 24 8.7 13.9 0.00 0.00 0.00 31 1007.7
20260503211534 72 40 3.5 8.7 0.00 0.00 0.00 29 1007.9
20260503210032 72 329 6.1 18.2 0.00 0.00 0.00 28 1008.0
20260503204530 72 26 7.0 15.6 0.00 0.00 0.00 31 1008.4
20260503203044 71 319 8.7 11.3 0.00 0.00 0.00 31 1008.6
20260503201530 71 21 7.8 13.0 0.00 0.00 0.00 36 1008.7
20260503200023 71 35 7.8 17.4 0.00 0.00 0.00 35 1008.9
20260503194534 70 52 5.2 10.4 0.00 0.00 0.00 40 1009.1
20260503193019 69 55 8.7 14.8 0.00 0.00 0.00 47 1009.3
20260503191516 69 70 6.1 10.4 0.00 0.00 0.00 46 1009.5
20260503190016 69 80 6.1 10.4 0.00 0.00 0.00 39 1009.9
20260503184519 68 68 2.6 9.6 0.00 0.00 0.00 39 1010.3
20260503183008 68 72 4.3 7.8 0.00 0.00 0.00 42 1010.5
20260503181506 67 89 3.5 7.0 0.00 0.00 0.00 42 1010.8
20260503180002 66 90 0.9 7.0 0.00 0.00 0.00 42 1011.1
20260503174603 65 90 1.7 6.1 0.00 0.00 0.00 44 1011.2
20260503173100 64 67 0.9 2.6 0.00 0.00 0.00 45 1011.3
20260503171552 63 67 1.7 3.5 0.00 0.00 0.00 47 1011.7